Weather in Yagodnaya

Russia / Kurgan Oblast     56°05′35″N   65°05′06″E
temp.,
°C
wind,
m/s
gust,
m/s
humid.,
%
clouds,
%
prec.,
mm/h
press.,
hPa
HPBL,
m
9 may, sun
sun923:00+16ne1134100 0.0 101511
02:00+14ne2243100 0.0 101519
05:00+13ene3347100 0.0 101539
08:00+15ene3750100 0.0 1015197
11:00+20e6836100 0.0 1015921
14:00+22e7928100 0.0 10153017
17:00+22ene6933100 0.0 10151202
20:00+18e5114568 0.2 1017610
10 may, mon
mon1023:00+15ene5124799 0.2 1018348
02:00+13ene51156100 0.0 1020313
05:00+11ne5115988 0.0 1021314
08:00+13ene6947100 0.0 1022672
11:00+16ene7935100 0.0 10231386
14:00+18ene7828100 0.0 10231737
17:00+18e6729100 0.0 10241802
20:00+14e3444100 0.0 102554
11 may, tue
tue1123:00+11e334615 0.0 102626
02:00+9e12525 0.0 102710
05:00+9ne115461 0.0 102810
08:00+14ne12415 0.0 1029254
11:00+19nne12315 0.0 10291534
14:00+21wnw3328100 0.0 10281848
17:00+21wnw3328100 0.0 10281708
20:00+17wnw3341100 0.0 102832
12 may, wed
wed1223:00+14nw3345100 0.0 102825
02:00+12w334631 0.0 102822
05:00+11w4651100 0.0 102880
08:00+15w4746100 0.0 1028265
11:00+18wnw465288 0.0 1027588
14:00+22nw5736100 0.0 10262236
17:00+21n5640100 0.0 10262078
20:00+17n4852100 0.0 1027164
13 may, thu
thu1323:00+13ene346194 0.0 102753
02:00+12n116497 0.0 102810
05:00+11w2268100 0.0 102812
08:00+16wnw345791 0.0 1028307
11:00+21wnw57465 0.0 10271070
14:00+25nw69376 0.0 10252389
17:00+26nnw683215 0.0 10242656
20:00+21nne47505 0.0 1025138